Location: Cella
(44.7333°N, 10.5667°E)
Time: 01:01:19
(UTC+00:00)

Cosmos 2366 rocket - Pass Details

Date: 03 March 2021
Orbit: 954 x 998 km, 82.9° (Epoch: 20 April)

Event Time Altitude Azimuth Distance (km) Brightness Sun altitude
Rises 18:20:28 0° 160° (SSE) 3,678 6.8 -13.6°
Reaches altitude 10° 18:23:08 10° 153° (SSE) 2,740 6.0 -14.1°
Maximum altitude 18:28:50 38° 88° (E) 1,482 4.5 -15.1°
Drops below altitude 10° 18:34:36 10° 23° (NNE) 2,774 6.2 -16.1°
Sets 18:37:18 0° 16° (NNE) 3,729 7.0 -16.6°
